Wind_Speed
4 4 4 5 4 2 2 2 2 1 1 1 2 2 3 3 3 4 4 4 4 4 3 3 4 4 4 4 4 5 6 6 6 6 6 6 6 6 6 6 6 6 6
4 4 4 5 4 3 2 2 1 1 1 1 2 2 3 3 3 4 4 4 4 4 4 4 4 4 4 5 5 5 6 6 7 7 7 7 7 7 7 6 6 7 7
4 4 5 5 4 3 2 2 1 1 1 2 2 3 4 4 4 4 4 4 5 5 5 5 5 5 5 5 6 6 6 6 7 8 8 8 8 8 8 7 7 8 8
5 5 5 4 3 2 1 1 1 0 2 3 3 3 4 5 5 6 6 5 5 5 5 5 6 6 6 6 6 7 7 7 7 8 8 8 9 9 9 9 8 9 9
5 5 5 4 3 2 2 1 0 1 1 3 4 4 5 5 6 6 6 6 6 6 6 6 6 6 7 7 7 7 8 8 8 8 9 9 9 10 10 10 10 9 10
6 6 5 4 3 2 2 1 1 0 2 3 4 5 5 6 7 7 7 7 7 7 7 7 7 7 7 8 8 8 8 9 9 10 9 9 10 10 11 11 11 11 11
7 6 6 5 3 3 3 2 1 1 2 3 4 5 6 7 7 8 8 8 8 8 8 7 7 7 8 8 8 8 9 9 10 10 10 10 10 11 11 12 12 12 12
7 7 6 5 4 3 3 3 2 2 3 4 5 6 6 7 8 8 8 8 8 9 9 8 8 8 8 8 8 9 9 9 10 11 11 11 11 11 12 12 13 13 14
8 7 6 5 4 4 3 3 2 2 3 4 5 6 7 7 8 8 8 9 9 9 9 9 9 8 8 8 8 9 9 10 11 11 12 12 12 12 12 13 13 14 14
9 8 7 6 5 4 4 3 3 3 4 5 6 6 7 7 8 8 9 9 10 10 10 9 9 8 8 8 8 8 9 10 10 11 12 13 13 13 13 13 13 14 14
9 8 7 6 5 5 4 3 3 3 4 5 6 7 7 7 8 8 9 10 10 10 9 9 8 7 7 7 8 8 9 9 10 11 12 12 13 13 13 14 14 14 14
9 8 7 6 6 5 4 3 3 4 5 5 6 6 7 8 8 9 10 10 10 10 9 8 8 7 7 7 7 7 8 9 9 10 12 12 12 13 13 13 14 15 16
9 9 8 6 6 5 4 4 4 4 5 6 6 7 7 8 9 9 10 10 10 10 9 8 7 7 6 6 6 7 7 8 9 10 11 12 12 13 14 14 14 15 15
9 9 8 7 6 5 4 4 4 5 5 6 7 7 8 9 9 9 10 10 10 10 9 8 7 6 6 6 6 6 7 8 9 9 10 11 12 12 13 14 14 15 15
9 9 8 7 6 5 4 4 4 5 6 7 7 7 8 9 9 10 10 11 11 10 9 8 7 6 6 6 6 6 6 7 8 9 10 11 12 12 13 14 15 15 16
10 9 9 7 6 5 5 4 4 5 6 7 7 8 8 9 9 10 10 11 11 10 9 8 6 6 5 5 5 6 6 7 7 9 9 10 11 12 13 14 15 15 16
11 10 9 7 6 5 4 4 4 5 6 7 7 7 8 8 9 9 10 10 11 10 8 7 6 6 5 5 5 5 6 6 7 8 9 10 11 12 13 14 15 15 15
11 10 9 8 6 5 4 4 4 5 6 6 6 7 7 8 8 9 9 10 10 9 8 7 6 6 5 4 4 5 5 5 6 7 9 10 11 13 13 14 14 15 15
11 10 9 8 6 5 4 4 4 4 5 5 5 6 7 7 8 8 9 9 9 9 8 7 6 5 5 4 4 4 4 4 5 7 8 9 10 12 13 14 14 15 15
11 11 9 7 6 5 4 4 4 4 4 4 5 6 6 7 7 8 8 8 9 8 8 7 6 6 5 4 4 3 3 4 5 6 7 9 10 11 13 14 15 15 16
10 10 9 7 7 6 5 5 4 4 3 4 4 5 5 6 6 7 8 8 9 8 8 7 6 6 5 4 4 3 3 4 4 5 6 8 9 10 12 13 14 15 16
11 10 9 8 7 6 6 5 4 3 3 3 3 4 5 6 6 7 8 8 8 8 8 8 7 6 5 5 4 3 3 3 3 4 5 6 7 9 11 12 13 15 15
12 10 10 8 7 6 6 5 4 3 3 3 3 4 4 5 6 7 8 8 9 9 8 8 7 7 6 5 5 4 3 3 3 3 4 5 6 7 9 10 12 13 15
12 11 10 9 7 6 6 5 3 2 2 2 3 3 4 5 6 6 7 8 9 9 9 9 8 7 7 6 5 4 4 3 3 3 3 4 5 6 8 9 11 12 14
12 11 10 9 8 7 6 5 4 2 2 2 2 3 4 5 6 6 7 8 8 8 9 9 8 8 7 7 6 5 4 4 3 3 2 2 3 5 6 7 10 11 13
13 12 10 9 8 7 7 6 4 3 2 2 2 2 3 5 6 6 7 7 8 8 8 8 8 8 8 7 7 6 5 4 4 3 2 2 2 3 4 6 7 9 12
Wind_Direction
163 160 157 154 149 146 141 142 124 93 64 29 8 356 349 342 350 344 337 337 327 316 309 293 287 280 268 258 247 244 243 239 233 229 226 221 216 212 210 206 203 197 193
169 168 164 161 151 140 133 131 125 108 61 24 15 1 352 350 351 347 344 335 321 314 309 301 290 288 275 265 257 249 246 245 240 232 227 224 219 214 211 209 209 205 200
176 176 172 163 157 155 151 155 136 92 49 27 15 7 5 7 1 350 342 332 317 307 302 295 285 284 278 267 260 252 247 246 244 233 227 226 222 216 212 212 212 208 200
184 181 178 169 164 166 167 160 135 56 32 22 12 5 5 5 358 349 338 328 316 307 301 293 283 277 273 267 262 253 245 240 240 230 226 225 223 218 214 214 212 208 202
187 183 178 177 183 183 176 186 145 36 22 19 13 3 357 356 348 344 336 328 320 313 303 297 289 279 273 268 263 255 248 241 235 231 227 225 223 219 216 216 213 208 206
189 183 177 181 189 193 188 192 195 20 9 1 357 354 349 349 344 339 334 327 320 315 309 299 289 280 273 267 261 254 248 240 232 229 227 226 223 220 217 217 215 208 207
188 181 176 183 185 202 204 194 206 303 334 342 342 342 342 342 340 337 333 328 323 318 312 304 295 284 274 266 260 254 247 239 234 230 227 226 224 222 220 219 218 211 210
186 179 180 188 192 203 208 217 249 289 312 327 334 336 337 338 337 335 330 326 323 319 315 307 299 287 278 269 261 255 249 238 234 230 227 225 224 224 221 220 220 216 212
186 184 189 200 207 212 222 236 256 279 309 325 330 331 332 333 334 334 332 329 325 321 317 312 303 291 282 272 262 254 247 239 234 232 228 228 226 224 222 220 220 217 215
190 193 202 208 209 215 228 242 269 291 311 321 327 330 331 332 334 336 334 330 325 323 319 314 305 293 283 273 264 255 246 240 236 232 229 230 228 225 224 222 220 217 218
196 201 208 206 207 214 229 250 279 296 311 321 328 332 334 336 336 335 334 333 329 325 321 316 309 299 287 275 265 255 245 240 235 232 229 230 228 226 224 223 221 219 218
201 204 206 207 210 220 236 259 281 296 310 323 330 334 336 337 335 334 334 333 330 328 324 319 312 304 295 279 265 255 246 239 234 231 229 229 228 227 224 222 222 219 217
203 206 204 207 215 228 242 266 284 296 308 320 325 329 332 334 334 334 335 334 332 331 327 322 312 302 298 286 270 256 248 242 237 234 232 231 230 228 226 225 222 218 219
200 202 204 210 216 230 250 269 283 297 307 317 322 326 329 333 334 335 336 335 335 333 329 325 317 304 295 285 271 255 248 243 239 237 235 232 229 227 224 222 221 221 219
200 203 209 215 221 235 255 271 284 294 303 314 322 327 328 332 336 339 340 338 338 336 332 328 321 310 299 286 272 259 251 245 239 236 234 230 228 224 222 221 220 222 221
202 206 213 220 227 240 255 270 283 294 307 314 319 324 329 334 339 342 343 343 342 339 335 332 325 316 308 295 278 263 254 247 240 236 235 232 229 225 223 222 222 223 224
206 210 216 225 232 242 254 270 283 298 308 312 315 324 333 338 341 343 344 345 345 343 339 335 330 321 312 300 284 270 259 250 243 239 238 235 232 229 226 224 223 224 225
212 214 216 223 233 243 257 273 288 304 311 314 320 329 334 338 340 341 342 345 348 349 346 342 337 330 323 310 293 280 269 257 248 244 240 236 234 233 231 228 226 226 226
212 211 216 223 234 245 253 267 286 303 308 315 326 333 337 339 341 344 346 348 350 351 353 352 348 341 334 321 306 292 280 263 251 247 242 237 234 233 232 230 229 226 225
211 212 214 221 235 246 253 265 280 292 302 313 327 336 343 346 347 351 355 356 356 357 0 358 354 354 351 337 319 304 292 278 263 256 247 241 237 233 232 231 231 228 227
212 212 210 217 230 242 250 256 267 278 295 313 326 339 348 353 357 0 2 1 1 4 5 2 358 360 0 354 340 318 301 288 277 263 251 243 238 236 233 231 231 230 230
208 210 209 217 227 237 245 250 259 274 291 313 329 346 358 5 7 9 7 6 7 9 10 8 5 5 4 1 352 335 311 300 289 270 254 244 238 236 233 231 232 233 231
211 213 215 217 224 233 241 247 258 274 290 315 335 357 6 13 14 14 14 13 14 15 16 16 16 12 9 6 0 351 340 330 315 283 264 249 239 234 234 235 234 232 230
211 213 215 219 227 235 239 243 248 269 294 326 349 8 14 14 14 16 15 15 16 18 20 22 23 21 16 13 11 5 357 348 339 318 283 258 246 242 240 238 236 231 229
210 212 216 221 228 235 240 242 245 268 291 312 347 6 12 11 10 13 14 14 17 19 21 23 23 22 18 18 18 15 7 0 350 337 318 286 260 250 247 243 240 235 232
213 215 218 221 226 234 236 239 243 255 279 302 331 349 1 8 10 15 15 15 19 20 20 21 22 22 20 22 23 19 14 10 7 359 346 332 302 264 255 250 245 241 236
Height
5892 5892 5892 5892 5892 5892 5893 5893 5893 5892 5892 5892 5891 5891 5890 5889 5889 5888 5888 5887 5887 5886 5886 5886 5886 5885 5885 5886 5886 5886 5887 5887 5888 5888 5889 5890 5890 5891 5891 5892 5892 5893 5894
5891 5891 5892 5892 5892 5892 5892 5893 5892 5892 5892 5891 5891 5890 5890 5889 5888 5887 5887 5886 5886 5885 5885 5885 5884 5884 5884 5884 5885 5885 5885 5886 5886 5887 5888 5888 5889 5890 5891 5891 5892 5892 5893
5891 5891 5891 5892 5892 5892 5892 5892 5892 5892 5891 5891 5891 5890 5889 5888 5887 5887 5886 5886 5885 5884 5884 5884 5883 5883 5883 5883 5883 5883 5884 5884 5885 5885 5886 5887 5888 5889 5890 5890 5891 5891 5892
5890 5891 5891 5891 5892 5892 5892 5892 5892 5892 5891 5891 5890 5890 5889 5888 5887 5886 5885 5885 5884 5883 5883 5882 5882 5882 5881 5882 5882 5882 5882 5883 5883 5884 5885 5885 5886 5887 5888 5889 5890 5891 5892
5890 5890 5891 5891 5891 5892 5892 5892 5892 5891 5891 5891 5890 5889 5888 5887 5886 5885 5884 5883 5883 5882 5881 5881 5880 5880 5880 5880 5880 5880 5880 5881 5881 5882 5883 5884 5885 5886 5887 5888 5889 5890 5891
5889 5889 5890 5891 5891 5891 5891 5892 5891 5891 5891 5890 5889 5889 5888 5887 5886 5884 5883 5882 5881 5881 5880 5879 5879 5878 5878 5878 5878 5878 5878 5879 5880 5880 5881 5882 5883 5884 5885 5886 5887 5889 5890
5888 5889 5889 5890 5891 5891 5891 5891 5891 5891 5890 5890 5889 5888 5887 5886 5885 5883 5882 5881 5880 5879 5878 5877 5877 5876 5876 5876 5876 5876 5876 5877 5878 5878 5879 5880 5881 5883 5884 5885 5886 5887 5888
5888 5888 5889 5889 5890 5890 5891 5891 5891 5890 5890 5889 5888 5887 5886 5885 5884 5882 5881 5880 5879 5878 5876 5875 5874 5874 5874 5874 5874 5874 5875 5875 5876 5876 5877 5878 5880 5881 5882 5883 5884 5885 5887
5887 5888 5888 5889 5889 5890 5890 5890 5890 5890 5889 5889 5888 5887 5885 5884 5883 5881 5880 5878 5877 5876 5874 5873 5872 5872 5871 5871 5871 5872 5872 5873 5873 5874 5875 5876 5877 5879 5880 5881 5882 5883 5885
5886 5887 5888 5888 5889 5889 5890 5890 5890 5889 5889 5888 5887 5885 5884 5883 5881 5880 5879 5877 5875 5874 5872 5871 5870 5869 5869 5869 5869 5869 5870 5871 5871 5872 5873 5874 5875 5876 5878 5879 5880 5881 5883
5885 5886 5887 5887 5888 5888 5889 5889 5889 5889 5888 5887 5886 5885 5883 5882 5880 5879 5877 5876 5874 5872 5871 5869 5868 5867 5867 5867 5867 5867 5868 5868 5869 5870 5871 5872 5873 5874 5875 5876 5878 5879 5881
5884 5885 5886 5887 5888 5888 5888 5888 5888 5888 5887 5886 5885 5884 5882 5881 5879 5878 5876 5874 5873 5871 5869 5868 5866 5865 5865 5864 5864 5865 5865 5866 5867 5867 5868 5870 5871 5872 5873 5874 5876 5877 5879
5883 5884 5885 5886 5887 5887 5888 5887 5887 5887 5886 5885 5884 5883 5882 5880 5878 5877 5875 5873 5871 5869 5868 5866 5865 5864 5863 5863 5862 5863 5863 5864 5865 5866 5867 5868 5869 5870 5871 5873 5874 5875 5877
5882 5883 5885 5886 5886 5886 5887 5887 5886 5886 5885 5884 5883 5882 5881 5879 5877 5875 5873 5872 5870 5868 5866 5864 5863 5862 5861 5861 5861 5861 5861 5862 5862 5863 5864 5866 5867 5868 5869 5870 5872 5873 5875
5881 5883 5884 5885 5885 5886 5886 5886 5886 5885 5884 5884 5882 5881 5880 5878 5876 5874 5872 5870 5868 5866 5864 5863 5861 5860 5860 5859 5859 5859 5859 5860 5860 5861 5862 5864 5865 5866 5867 5868 5870 5871 5873
5880 5882 5883 5884 5884 5885 5885 5885 5885 5884 5883 5883 5881 5880 5879 5877 5875 5873 5871 5869 5867 5865 5863 5861 5860 5859 5858 5858 5857 5857 5858 5858 5858 5859 5860 5862 5863 5864 5865 5866 5868 5869 5870
5879 5881 5882 5883 5883 5884 5884 5884 5884 5883 5882 5882 5881 5879 5877 5876 5874 5872 5870 5868 5866 5864 5862 5860 5859 5858 5857 5857 5856 5856 5856 5856 5857 5858 5858 5859 5860 5861 5863 5864 5865 5867 5868
5878 5880 5881 5882 5882 5883 5883 5883 5883 5882 5881 5881 5879 5878 5876 5875 5873 5871 5869 5867 5865 5863 5861 5859 5858 5857 5856 5855 5855 5855 5855 5855 5855 5856 5856 5857 5858 5859 5860 5862 5863 5864 5866
5877 5878 5880 5881 5882 5882 5882 5882 5882 5881 5881 5880 5879 5877 5876 5874 5872 5870 5868 5866 5864 5862 5860 5859 5857 5856 5855 5854 5854 5854 5854 5854 5854 5854 5854 5855 5856 5857 5858 5859 5860 5862 5863
5876 5877 5879 5880 5881 5881 5881 5881 5881 5880 5880 5879 5878 5877 5875 5873 5871 5870 5868 5866 5864 5862 5860 5858 5857 5855 5854 5853 5853 5853 5853 5852 5852 5853 5853 5853 5853 5854 5855 5856 5858 5860 5861
5874 5876 5877 5879 5880 5880 5880 5880 5880 5880 5879 5878 5877 5876 5874 5873 5871 5869 5868 5866 5864 5862 5860 5858 5856 5855 5854 5853 5852 5852 5852 5851 5851 5851 5851 5851 5852 5852 5853 5854 5856 5857 5858
5873 5875 5876 5877 5878 5879 5879 5880 5879 5879 5878 5878 5877 5875 5874 5872 5871 5869 5868 5866 5864 5862 5860 5858 5856 5855 5853 5852 5852 5851 5851 5851 5850 5849 5849 5850 5850 5851 5851 5852 5853 5855 5856
5872 5874 5875 5876 5877 5878 5878 5878 5878 5878 5877 5877 5876 5875 5874 5872 5871 5869 5867 5866 5864 5862 5860 5858 5856 5855 5853 5852 5851 5851 5850 5849 5849 5849 5848 5848 5849 5849 5850 5850 5851 5852 5853
5871 5872 5874 5875 5876 5877 5877 5878 5878 5877 5877 5876 5875 5874 5873 5872 5871 5869 5867 5866 5864 5862 5860 5858 5856 5855 5853 5852 5851 5850 5849 5849 5848 5848 5847 5847 5847 5848 5848 5849 5849 5850 5851
5869 5871 5872 5874 5875 5876 5876 5876 5877 5877 5876 5876 5875 5874 5873 5872 5871 5869 5867 5866 5864 5862 5860 5859 5857 5855 5854 5852 5851 5850 5849 5848 5847 5847 5847 5846 5846 5846 5847 5847 5847 5848 5849
5867 5869 5871 5872 5873 5874 5875 5875 5875 5875 5875 5875 5874 5874 5873 5872 5870 5869 5867 5866 5864 5863 5861 5859 5857 5856 5854 5853 5851 5850 5849 5848 5847 5847 5846 5846 5846 5846 5845 5846 5846 5846 5847